Location: Devore Heights
(34.2372°N, 117.4156°W)
Time: 08:34:23
(UTC+00:00)

Vanguard 1 Rocket - Pass Details

Date: 15 September 2024
Orbit: 650 x 4218 km, 34.3° (Epoch: 09 October)

Event Time Altitude Azimuth Distance (km) Brightness Sun altitude
Rises 17:23:09 0° 289° (WNW) 7,815 11.7 44.4°
Reaches altitude 10° 17:28:13 10° 285° (WNW) 7,064 11.6 45.2°
Maximum altitude 17:52:47 56° 216° (SW) 4,564 11.7 49.0°
Drops below altitude 10° 18:13:14 10° 144° (SE) 5,984 12.4 51.9°
Sets 18:17:09 0° 140° (SE) 6,615 12.4 52.4°
